Tracking 35280 objects as of 7-Sep-2026
HD Live streaming from Space Station
objects crossing your sky now

QPS-SAR-9 SUSANOO-I

Track QPS-SAR-9 SUSANOO-I now!
10-day predictions


NORAD ID: 63205
Int'l Code: 2025-050A
Launch date: March 15, 2025
Source: Japan (JPN)
Launch site: Rocket Lab Launch Complex (RLLC)
Your satellite tracking list
Your tracking list is empty




NASA's NSSDC Master Catalog

Two Line Element Set (TLE):
1 63205U 25050A   26250.62677392  .00003676  00000-0  27638-3 0  9996
2 63205  42.0204   6.4433 0005860 321.0419  38.9985 15.03805734 81376
Source of the keplerian elements: AFSPC